Regional Weather Roundup
Issued by NWS

Home | Current Version | Previous Version | Graphics & Text | Print | Product List | Glossary On
Versions: 1 2 3 4 5 6 7 8 9 10 11 12 13 14 15 16 17 18 19 20 21 22 23 24 25 26 27 28 29 30 31 32 33 34 35 36 37 38 39 40 41 42 43 44 45 46 47 48 49 50
349
ASUS45 KBOU 210510
RWRCO

WEATHER ROUNDUP FOR COLORADO
NATIONAL WEATHER SERVICE DENVER/BOULDER CO
1100 PM MDT FRI APR 20 2018

NOTE: "FAIR" INDICATES FEW OR NO CLOUDS BELOW 12000 FEET WITH NO
SIGNIFICANT WEATHER AND/OR OBSTRUCTIONS TO VISIBILITY.

COZ001>005-013-030-031-210600-
...NORTHWEST COLORADO...

CITY           SKY/WX    TMP DP  RH WIND       PRES   REMARKS
CRAIG          CLOUDY    39  35  86 W6        30.02R
HAYDEN         LGT SNOW  32  31  96 S6        30.02S FOG     WCI  26
MEEKER         LGT SNOW  33  31  92 SW3       30.05S VSB 1
RANGELY        DRIZZLE   39  38  95 CALM      30.09S
RABBIT EARS PA LGT SNOW  27  25  93 W7        30.03R VSB 3/4 WCI  19
STEAMBOAT SPGS CLOUDY    32  32 100 CALM      30.01R VSB 3/4
WALDEN         CLOUDY    32  30  93 N9        30.01S WCI  24
$$

COZ006>008-011-210600-
...WEST CENTRAL VALLEYS...

CITY           SKY/WX    TMP DP  RH WIND       PRES   REMARKS
GRAND JUNCTION CLOUDY    42  39  89 SE8       30.06S
MONTROSE       LGT RAIN  38  34  85 S5        30.10S
EAGLE          LGT RAIN  36  30  79 W5        30.05S
RIFLE          LGT RAIN  36  34  92 CALM      30.07S
DELTA          DRIZZLE   42  37  83 NW8       30.08S
NUCLA          CLOUDY    41  32  70 E15       30.11R
$$

COZ017>023-064>068-210600-
...SOUTHWEST COLORADO...

CITY           SKY/WX    TMP DP  RH WIND       PRES   REMARKS
DURANGO        MOCLDY    39  25  57 SW3       30.05S
CORTEZ         FAIR      33  26  75 E3        30.09R
PAGOSA SPRINGS CLOUDY    31  23  72 CALM      30.07R
TELLURIDE      LGT SNOW  29  28  96 CALM      30.11S VSB 1
WOLF CREEK PAS CLOUDY    18  14  86 SW6       30.14S WCI   9
$$

COZ009-010-012-014-032>034-037-058>063-210600-
...CENTRAL COLORADO...

CITY           SKY/WX    TMP DP  RH WIND       PRES   REMARKS
ASPEN          LGT SNOW  32  30  92 CALM      30.03S FOG
BUENA VISTA    FLURRIES  32  27  83 NW3       30.03S
COPPER MTN     NOT AVBL
BERTHOUD PASS  CLOUDY    18   9  68 SE14G24   30.04S WCI   4
COTTONWOOD PAS FLURRIES  32  28  86 W8        30.03S WCI  25
GUNNISON       LGT SNOW  31  29  92 E5        30.06R FOG     WCI  26
GRANBY         LGT SNOW  32  32  99 NE3       30.01R
KREMMLING      LGT SNOW  37  34  87 W8        30.02R
LEADVILLE      LGT SNOW  23  22  96 N5        30.03R FOG     WCI  17
MONARCH PASS   CLOUDY    18  16  93 W24       30.13S WCI   0
SALIDA         CLOUDY    34  32  92 CALM      30.11R
SUNLIGHT       LGT SNOW  23  21  93 SW6       30.09F VSB 1   WCI  16
WILKERSON PASS CLOUDY   N/A N/A N/A E3        30.06F FOG
$$

COZ069>075-210600-
...SAN LUIS VALLEY/SANGRE DE CRISTO MOUNTAINS...

CITY           SKY/WX    TMP DP  RH WIND       PRES   REMARKS
ALAMOSA        MOCLDY    28  24  85 S6        30.04R WCI  22
DEL NORTE      MOCLDY    32  24  73 SW3       30.03F
LA VETA PASS   FAIR      23  18  80 SW14G20   30.15F WCI  11
SAGUACHE       NOT AVBL
$$

COZ035-036-038>040-210600-
...NORTHERN COLORADO FRONT RANGE...

CITY           SKY/WX    TMP DP  RH WIND       PRES   REMARKS
DENVER INTL AP LGT SNOW  34  34 100 SE12      30.06R FOG     WCI  25
AURORA         FLURRIES  36  36 100 SE13      30.04R
FRONT RANGE AP LGT SNOW  36  35  95 SE14      30.06S
ERIE MUNI ARPT MIX PCPN  35  34  95 E8        30.11R WCI  29
BOULDER MUN AP RAIN      36  36 100 NE7       30.06R
CENTENNIAL     LGTSLEET  36  32  85 SE16G26   30.02S
BROOMFIELD     LGT SNOW  36  34  93 SE12      30.05R
FORT COLLINS   LGT SNOW  35  34  96 CALM      30.11R FOG
LONGMONT       MIX PCPN  39  36  89 E8        30.10R
$$

COZ041-046-047-076>085-087-088-210600-
...PIKES PEAK/PALMER DIVIDE AND SOUTHERN FOOTHILLS...

CITY           SKY/WX    TMP DP  RH WIND       PRES   REMARKS
COLO. SPRINGS  SNOW      32  32 100 SE9       30.06F VSB 1/4 WCI  24
A. F. ACADEMY  LGT SNOW  32  32 100 S8        30.05S FOG     WCI  25
SCHRIEVER AFB  NOT AVBL
CHEYENNE MTN   LGT SNOW  30  30 100 S9        30.01S WCI  22
ELLICOTT       LGT SNOW N/A N/A N/A SE16      30.05S
FALCON         LGT SNOW  31  31 100 SE10      30.07S VSB 3/4 WCI  23
FORT CARSON    LGT SNOW  32  32  99 CALM      30.06R FOG
LIMON          LGT SNOW  32  32 100 SE13      30.08F VSB 3/4 WCI  22
MONUMENT HILL  LGT SNOW  30  30 100 SE16G22   30.05R WCI  19
CANON CITY     LGT RAIN  34  34 100 CALM      30.05
WALSENBURG     NOT AVBL
TRINIDAD       CLOUDY    34  32  92 NE6       30.03S WCI  29
$$

COZ042>045-048>051-090-091-210600-
...NORTHEAST COLORADO...

CITY           SKY/WX    TMP DP  RH WIND       PRES   REMARKS
GREELEY ARPT   MIX PCPN  35  34  96 E10       30.12R FOG     WCI  27
AKRON          LGT RAIN  35  35 100 SE16      30.12S FOG     WCI  25
BURLINGTON     LGT RAIN  39  38  96 SE25G35   30.09F
WRAY           DRIZZLE   37  37 100 E10       30.16S
YUMA           DRIZZLE   36  34  93 E12G18    30.14S
STERLING       NOT AVBL
HOLYOKE        LGT RAIN  41  37  87 E13G21    30.19R
FORT MORGAN    DRIZZLE   36  35  94 E13       30.13F
$$

COZ086-089-092>099-210600-
...SOUTHEAST COLORADO...

CITY           SKY/WX    TMP DP  RH WIND       PRES   REMARKS
PUEBLO         CLOUDY    41  34  76 SE20G29   30.05R
LA JUNTA       CLOUDY    42  39  89 SE15      30.05R
LAMAR          CLOUDY    42  39  89 SE16G24   30.05F
SPRINGFIELD      N/A     40  40 100 E14       30.05F
$$




USA.gov is the U.S. government's official web portal to all federal, state and local government web resources and services.